Flag for U.S.A. Weather past 2 weeks in Escondido, California, U.S.A.

Now
65 °F

Partly sunny.


Feels Like: 65 °F
Forecast: 52 / 67 °F
Wind: 15 mph from West

Location: Ramona Airport

Current Time: May 6, 2015 at 1:35:56 PM

Latest Report: May 6, 2015 at 12:53 PM


Visibility: 10 mi

Pressure: 29.85 "Hg

Humidity: 52%

Dew point: 47 °F

Location of EscondidoLocation

Historic Weather in Escondido — Graph

°F

Escondido temperature yesterday

Maximum temperature yesterday: 67 °F (at 12:53 PM)
Minimum temperature yesterday: 52 °F (at 8:53 PM)
Average temperature yesterday: 58 °F

Past Weeks' High & Low Weather Summary

 TemperatureHumidityPressure
High92 °F (Apr 29, 1:53 PM)97% (Apr 24, 3:53 AM)30.02 "Hg (Apr 24, 3:53 AM)
Low43 °F (Apr 28, 3:53 AM)8% (Apr 28, 12:53 PM)29.79 "Hg (Apr 30, 2:53 AM)
Average61 °F62%29.90 "Hg
* Reported Apr 21 11:53 AM — May 6 11:53 AM, Escondido, Weather by CustomWeather, © 2015

Note: Actual official high and low records may vary slightly from our data, if they occured in-between our weather recording intervals... More about our weather records

Advertising

Escondido weather history for previous 24 hours

 ConditionsComfort  
Time TempWeatherWind HumidityBarometerVisibility
11:53 AM
Wed, May 6
66 °FScattered clouds.8 mph42%29.85 "Hg10 mi
10:53 AM63 °FScattered clouds.10 mph45%29.88 "Hg10 mi
9:53 AM59 °FOvercast.5 mph51%29.88 "Hg10 mi
8:53 AM58 °FOvercast.7 mph56%29.90 "Hg10 mi
7:53 AM55 °FOvercast.6 mph69%29.90 "Hg10 mi
6:53 AM54 °FOvercast.No wind77%29.89 "Hg10 mi
5:53 AM54 °FOvercast.3 mph77%29.88 "Hg10 mi
4:53 AM54 °FOvercast.No wind83%29.88 "Hg10 mi
4:00 AM54 °FOvercast.No wind80%29.91 "Hg10 mi
2:53 AM54 °FMostly cloudy.No wind83%29.90 "Hg10 mi
1:53 AM54 °FOvercast.No wind80%29.91 "Hg8 mi
12:53 AM54 °FOvercast.3 mph80%29.93 "Hg10 mi
11:53 PM
Tue, May 5
54 °FOvercast.6 mph80%29.94 "Hg10 mi
10:53 PM54 °FMostly cloudy.7 mph80%29.95 "Hg10 mi
9:53 PM53 °FPassing clouds.6 mph80%29.95 "Hg10 mi
8:53 PM52 °FCool.5 mph77%29.93 "Hg10 mi
7:53 PM54 °FSunny.6 mph74%29.93 "Hg10 mi
6:53 PM59 °FSunny.12 mph60%29.91 "Hg10 mi
5:53 PM60 °FSunny.10 mph60%29.90 "Hg10 mi
4:53 PM62 °FSunny.12 mph56%29.91 "Hg10 mi
3:53 PM65 °FSunny.12 mph51%29.92 "Hg10 mi
2:53 PM67 °FScattered clouds.9 mph47%29.92 "Hg10 mi
1:53 PM66 °FScattered clouds.7 mph49%29.93 "Hg10 mi
Weather by CustomWeather, © 2015

See weather overviewHow to use our weather pages